1514282400.98,40703,8.69,73034.0,2.71,-33.03,-33.43,0,*7D
1514282402.21,40704,8.69,73032.8,2.71,-33.03,-33.43,0,*7A
1514282403.44,40705,8.69,73034.3,2.71,-33.03,-33.49,0,*71
1514282404.69,40706,8.69,73028.3,2.71,-33.09,-33.49,0,*78
1514282405.95,40707,8.75,73038.8,2.69,-33.09,-33.55,0,*7D
1514282407.23,40708,8.69,73038.3,2.69,-32.97,-33.43,0,*73
1514282408.5,40709,8.69,73032.5,2.67,-33.09,-33.49,0,*70
1514282409.76,40710,8.69,73028.8,2.69,-33.27,-33.67,0,*76
1514282411.01,40711,8.69,73024.5,2.67,-32.39,-32.79,0,*79
1514282412.24,40712,8.69,73028.8,2.69,-32.39,-32.91,0,*72
1514282413.46,40713,8.69,73028.8,2.67,-33.15,-33.55,0,*7B
1514282414.71,40714,8.69,73032.8,2.67,-33.27,-33.67,0,*7C
1514282415.99,40715,8.69,73038.0,2.67,-32.63,-33.09,0,*74
1514282417.26,40716,8.69,73030.5,2.67,-32.63,-33.09,0,*77
1514282418.48,40717,8.69,73032.3,2.67,-33.15,-33.55,0,*7F
1514282419.73,40718,8.69,73024.8,2.65,-33.31,-33.77,0,*74
1514282420.97,40719,8.69,73020.5,2.63,-33.43,-33.95,0,*7A
1514282422.22,40720,8.69,73038.0,2.63,-33.27,-33.67,0,*7F
1514282423.48,40721,8.69,73036.5,2.65,-33.09,-33.43,0,*72
1514282424.68,40722,8.69,73032.0,2.61,-32.91,-33.37,0,*76
1514282425.93,40723,8.69,73030.5,2.63,-32.69,-33.09,0,*7F
1514282427.18,40724,8.69,73028.0,2.63,-33.03,-33.43,0,*7B
1514282428.4,40725,8.69,73028.0,2.63,-32.57,-33.03,0,*7E
1514282429.65,40726,8.69,73008.0,2.63,-32.35,-32.85,0,*76
1514282430.9,40727,8.69,73020.5,2.63,-33.03,-33.43,0,*78
1514282432.14,40728,8.69,73012.5,2.63,-32.85,-33.21,0,*7C
1514282433.41,40729,8.69,73026.0,2.63,-33.27,-33.61,0,*70
1514282434.65,40730,8.69,73028.5,2.61,-33.27,-33.61,0,*7A
1514282435.88,40731,8.69,73034.5,2.61,-33.27,-33.67,0,*7D
1514282437.15,40732,8.69,73032.3,2.59,-32.97,-33.27,0,*7B
1514282438.37,40733,8.69,73034.0,2.61,-31.67,-32.29,0,*72
1514282439.57,40734,8.69,73038.8,2.61,-31.79,-32.13,0,*73
1514282440.77,40735,8.69,73038.8,2.61,-32.13,-32.51,0,*7B
1514282442.02,40736,8.69,73044.3,2.63,-32.35,-32.75,0,*78
1514282443.24,40737,8.69,73050.8,2.63,-31.79,-32.13,0,*72
1514282444.5,40738,8.69,73048.0,2.65,-31.23,-31.39,0,*7F
1514282445.73,40739,8.69,73058.0,2.65,-31.73,-32.23,0,*73
1514282446.98,40740,8.69,73054.5,2.65,-32.07,-32.45,0,*7D
1514282448.23,40741,8.69,73052.8,2.65,-32.29,-32.85,0,*7C
1514282449.43,40742,8.69,73052.5,2.65,-32.51,-33.03,0,*7F
1514282450.66,40743,8.69,73058.5,2.65,-32.51,-32.97,0,*72
1514282451.91,40744,8.69,73066.8,2.67,-32.45,-32.91,0,*74
1514282453.15,40745,8.69,73064.5,2.63,-32.45,-32.91,0,*71
1514282454.37,40746,8.69,73064.0,2.63,-32.51,-33.03,0,*7D
1514282455.62,40747,8.69,73066.3,2.63,-32.45,-32.91,0,*73
1514282456.85,40748,8.69,73062.8,2.65,-32.13,-32.45,0,*70
1514282458.1,40749,8.69,73058.5,2.65,-32.29,-32.79,0,*77
1514282459.33,40750,8.69,73060.8,2.65,-32.39,-32.85,0,*7D
1514282460.56,40751,8.69,73062.5,2.65,-32.39,-32.85,0,*7C
1514282461.76,40752,8.69,73060.8,2.65,-32.13,-32.51,0,*7E
1514282463.01,40753,8.69,73054.8,2.65,-32.29,-32.79,0,*7C
1514282464.26,40754,8.69,73046.8,2.63,-32.29,-32.69,0,*7C
1514282465.48,40755,8.69,73040.3,2.63,-32.51,-33.03,0,*7F
1514282466.71,40756,8.69,73036.5,2.65,-32.63,-33.15,0,*7C
1514282467.93,40757,8.69,73038.0,2.63,-32.51,-33.21,0,*7D
1514282469.15,40758,8.69,73038.0,2.65,-32.51,-33.09,0,*7E
1514282470.38,40759,8.69,73036.8,2.63,-32.57,-33.03,0,*75
1514282471.63,40760,8.69,73034.8,2.63,-32.45,-32.91,0,*76
1514282472.87,40761,8.69,73036.0,2.63,-32.19,-32.57,0,*74
1514282474.09,40762,8.69,73042.0,2.61,-32.29,-32.69,0,*7B
1514282475.3,40763,8.69,73038.5,2.61,-32.01,-32.51,0,*7B
1514282476.55,40764,8.69,73040.3,2.63,-32.75,-33.21,0,*7B
1514282477.8,40765,8.69,73036.8,2.65,-32.97,-33.49,0,*7E
1514282479.05,40766,8.69,73038.3,2.63,-33.03,-33.43,0,*7D
1514282480.29,40767,8.69,73040.3,2.61,-33.09,-33.61,0,*74
1514282481.54,40768,8.69,73038.3,2.63,-32.29,-32.69,0,*73
1514282482.79,40769,8.69,73060.8,2.59,-31.67,-32.19,0,*75
1514282483.99,40770,8.69,73066.8,2.61,-31.79,-32.13,0,*73
1514282485.21,40771,8.69,73058.3,2.61,-31.79,-32.19,0,*78
1514282486.44,40772,8.69,73044.5,2.61,-32.45,-33.03,0,*7D
1514282487.69,40773,8.69,73044.5,2.61,-32.79,-33.27,0,*75
1514282488.94,40774,8.69,73044.8,2.59,-32.57,-33.09,0,*79
1514282490.17,40775,8.69,73050.3,2.61,-32.45,-32.91,0,*70
1514282491.37,40776,8.69,73052.8,2.61,-32.51,-32.91,0,*76
1514282492.6,40777,8.69,73052.0,2.59,-32.39,-32.91,0,*72
1514282493.82,40778,8.69,73054.8,2.59,-32.57,-33.03,0,*7F
1514282495.04,40779,8.69,73056.3,2.61,-32.35,-32.85,0,*7E
1514282496.24,40780,8.69,73064.8,2.61,-32.35,-32.91,0,*7D
1514282497.45,40781,8.69,73070.0,2.59,-32.23,-32.57,0,*7A
1514282498.7,40782,8.69,73058.0,2.59,-31.17,-31.73,0,*78
1514282499.95,40783,8.69,73054.0,2.61,-31.51,-31.95,0,*78
1514282501.2,40784,8.69,73034.0,2.61,-30.73,-31.23,0,*73
1514282502.48,40785,8.69,73030.8,2.63,-31.11,-31.51,0,*70
1514282503.7,40786,8.69,73036.5,2.63,-31.05,-31.45,0,*73
1514282504.97,40787,8.69,73050.3,2.63,-31.95,-32.29,0,*72
1514282506.21,40788,8.69,73042.5,2.65,-32.07,-32.69,0,*77
1514282507.41,40789,8.69,73038.0,2.65,-31.79,-32.23,0,*72
1514282508.64,40790,8.69,73040.8,2.65,-31.45,-31.91,0,*7F
1514282509.89,40791,8.69,73040.5,2.65,-31.23,-31.73,0,*72
1514282511.12,40792,8.69,73046.5,2.63,-32.01,-32.35,0,*75
1514282512.35,40793,8.69,73066.0,2.65,-31.57,-31.79,0,*79
1514282513.57,40794,8.69,73054.5,2.65,-31.17,-31.61,0,*73
1514282514.83,40795,8.69,73030.8,2.67,-32.01,-32.45,0,*71
1514282516.1,40796,8.69,73040.5,2.67,-31.51,-31.91,0,*7E
1514282517.36,40797,8.69,73054.3,2.67,-32.01,-32.45,0,*73
1514282518.6,40798,8.69,73026.0,2.67,-32.19,-32.57,0,*76
1514282519.85,40799,8.69,73028.5,2.65,-31.39,-31.73,0,*71
1514282521.08,40800,8.69,73040.5,2.67,-30.67,-31.01,0,*73
1514282522.35,40801,8.69,73036.0,2.67,-31.39,-31.91,0,*71
1514282523.6,40802,8.69,73038.3,2.67,-32.23,-32.75,0,*73
1514282524.85,40803,8.69,73044.8,2.67,-31.17,-31.73,0,*73
1514282526.13,40804,8.69,73040.3,2.69,-31.73,-32.19,0,*77
1514282527.37,40805,8.69,73040.3,2.69,-32.01,-32.39,0,*72
1514282528.61,40806,8.69,73048.3,2.67,-32.19,-32.57,0,*7E
1514282529.87,40807,8.69,73048.3,2.69,-31.91,-32.39,0,*7A
1514282531.12,40808,8.69,73042.8,2.67,-31.91,-32.35,0,*77
1514282532.37,40809,8.69,73050.5,2.67,-31.73,-32.23,0,*7D
1514282533.62,40810,8.69,73044.3,2.67,-31.33,-31.85,0,*7E
1514282534.88,40811,8.69,73030.5,2.69,-30.77,-31.29,0,*76
1514282536.13,40812,8.69,73032.8,2.69,-31.11,-31.67,0,*7E
1514282537.38,40813,8.69,73024.8,2.67,-31.85,-32.35,0,*78
1514282538.66,40814,8.69,73024.5,2.67,-32.19,-32.63,0,*7A
1514282539.9,40815,8.69,73036.8,2.67,-32.19,-32.57,0,*7C
1514282541.18,40816,8.69,73024.5,2.69,-32.19,-32.63,0,*76
1514282542.44,40817,8.69,73044.0,2.67,-31.91,-32.39,0,*75
1514282543.69,40818,8.69,73054.3,2.69,-30.95,-31.33,0,*78
1514282544.95,40819,8.69,73048.0,2.69,-30.33,-30.77,0,*74
1514282546.2,40820,8.63,73012.8,2.69,-30.61,-31.01,0,*79
1514282547.46,40821,8.69,73008.8,2.69,-30.17,-30.45,0,*78
1514282548.75,40822,8.69,73022.8,2.73,-29.89,-30.39,0,*74
1514282550.0,40823,8.69,73030.8,2.75,-30.51,-30.89,0,*75
1514282551.26,40824,8.69,73026.8,2.75,-30.17,-30.55,0,*71
1514282552.47,40825,8.69,73016.5,2.75,-31.01,-31.45,0,*76
1514282553.73,40826,8.69,73014.8,2.75,-31.57,-31.95,0,*7B
1514282554.94,40827,8.69,73034.8,2.75,-30.83,-31.17,0,*78
1514282556.17,40828,8.69,73028.3,2.79,-30.61,-31.01,0,*70
1514282557.38,40829,8.69,73034.8,2.79,-30.33,-30.67,0,*77
1514282558.6,40830,8.69,73030.5,2.79,-30.01,-30.45,0,*7E
1514282559.9,40831,8.69,73030.8,2.81,-29.89,-30.17,0,*77
1514282561.15,40832,8.69,73018.5,2.83,-29.89,-30.39,0,*7A
1514282562.4,40833,8.69,73018.5,2.83,-30.05,-30.39,0,*77
1514282563.65,40834,8.69,73020.0,2.85,-30.23,-30.55,0,*78
1514282564.93,40835,8.69,73020.0,2.85,-30.77,-31.11,0,*79
1514282566.18,40836,8.69,73030.3,2.85,-30.05,-30.45,0,*7F
1514282567.43,40837,8.69,73028.3,2.85,-30.11,-30.55,0,*7A
1514282568.71,40838,8.69,73030.5,2.89,-30.17,-30.55,0,*7F
1514282569.96,40839,8.69,73036.5,2.87,-30.01,-30.51,0,*73
1514282571.24,40840,8.69,73042.5,2.89,-30.39,-30.73,0,*78
1514282572.5,40841,8.69,73042.0,2.91,-29.73,-30.17,0,*74
1514282573.73,40842,8.69,73024.8,2.91,-30.27,-30.61,0,*7F
1514282575.01,40843,8.69,73034.0,2.89,-30.73,-31.11,0,*70
1514282576.26,40844,8.69,73044.3,2.89,-30.55,-31.01,0,*72
1514282577.52,40845,8.69,73044.0,2.93,-30.55,-30.95,0,*74
1514282578.74,40846,8.69,73036.3,2.91,-30.55,-31.01,0,*79
1514282579.99,40847,8.69,73054.3,2.91,-30.61,-30.95,0,*73
1514282581.22,40848,8.69,73048.3,2.91,-30.27,-30.51,0,*76
1514282582.49,40849,8.69,73046.5,2.93,-30.61,-31.11,0,*72
1514282583.76,40850,8.69,73048.5,2.93,-30.73,-31.11,0,*79
1514282585.01,40851,8.69,73052.5,2.93,-30.11,-30.55,0,*7D
1514282586.26,40852,8.69,73054.8,2.93,-29.73,-30.27,0,*77
1514282587.48,40853,8.69,73056.0,2.95,-30.11,-30.55,0,*79
1514282588.7,40854,8.69,73054.8,2.95,-30.45,-30.77,0,*7F
1514282589.94,40855,8.69,73052.5,2.95,-30.27,-30.73,0,*7E
1514282591.17,40856,8.69,73044.0,2.95,-30.27,-30.77,0,*79
1514282592.42,40857,8.69,73042.3,2.95,-30.61,-30.95,0,*76
1514282593.67,40858,8.69,73046.5,2.97,-30.67,-31.11,0,*70
1514282594.92,40859,8.69,73046.3,2.95,-30.61,-31.11,0,*75
1514282596.16,40860,8.69,73046.0,2.95,-30.55,-30.95,0,*75
1514282597.38,40861,8.69,73032.3,2.95,-30.45,-30.61,0,*7E
1514282598.61,40862,8.69,73028.0,2.95,-30.05,-30.45,0,*7F
1514282599.85,40863,8.63,73020.8,2.97,-30.23,-30.55,0,*79
1514282601.14,40864,8.69,73020.3,2.97,-30.89,-31.23,0,*7E
1514282602.4,40865,8.69,73030.5,2.97,-31.23,-31.45,0,*7E
1514282603.65,40866,8.69,73032.5,2.97,-31.61,-32.13,0,*7B
1514282604.93,40867,8.69,73030.3,2.97,-30.51,-30.95,0,*74
1514282606.18,40868,8.69,73034.5,2.97,-30.67,-31.11,0,*73
1514282607.43,40869,8.69,73034.3,2.95,-31.39,-31.85,0,*77
1514282608.67,40870,8.69,73018.0,2.95,-31.51,-31.85,0,*71
1514282609.9,40871,8.69,73036.5,2.95,-31.29,-31.61,0,*75
1514282611.15,40872,8.69,73020.5,2.93,-31.79,-32.19,0,*79
1514282612.41,40873,8.63,73022.0,2.93,-31.85,-32.51,0,*77
1514282613.6,40874,8.69,73032.0,2.91,-31.05,-31.33,0,*7D
1514282614.81,40875,8.69,73038.5,2.91,-30.83,-31.33,0,*73
1514282616.06,40876,8.69,73044.0,2.91,-30.95,-31.39,0,*7D
1514282617.32,40877,8.69,73076.8,2.91,-30.77,-31.23,0,*7B
1514282618.52,40878,8.69,73044.8,2.91,-30.83,-31.33,0,*7E
1514282619.75,40879,8.69,73006.8,2.91,-30.95,-31.17,0,*7E
1514282620.96,40880,8.69,73026.5,2.91,-30.67,-31.05,0,*76
1514282622.21,40881,8.63,73032.8,2.91,-32.29,-32.75,0,*7B
1514282623.46,40882,8.69,73032.8,2.89,-32.29,-32.69,0,*7C
1514282624.71,40883,8.63,73024.5,2.89,-32.13,-32.63,0,*7E
1514282625.97,40884,8.69,73028.3,2.85,-32.75,-33.21,0,*72
1514282627.23,40885,8.69,73024.5,2.85,-32.51,-32.85,0,*7A
1514282628.49,40886,8.69,73036.5,2.85,-32.39,-32.75,0,*78
1514282629.74,40887,8.69,73036.8,2.81,-32.23,-32.79,0,*7A
1514282630.98,40888,8.69,73058.5,2.81,-32.01,-32.39,0,*71
1514282632.19,40889,8.69,73044.0,2.83,-31.45,-31.79,0,*76
1514282633.47,40890,8.69,73034.0,2.81,-31.51,-31.91,0,*7F
1514282634.73,40891,8.69,73038.8,2.81,-32.39,-32.75,0,*7A
1514282635.94,40892,8.63,73028.5,2.75,-32.23,-32.51,0,*7F
1514282637.19,40893,8.69,73024.8,2.79,-31.57,-31.91,0,*7D
1514282638.4,40894,8.69,73024.0,2.75,-32.69,-33.15,0,*76
1514282639.6,40895,8.69,73030.0,2.75,-33.15,-33.55,0,*79
1514282640.87,40896,8.69,73034.3,2.73,-33.03,-33.43,0,*7C
1514282642.12,40897,8.69,73042.8,2.71,-32.85,-33.09,0,*7E
1514282643.35,40898,8.69,73042.5,2.71,-31.95,-32.39,0,*71
1514282644.62,40899,8.69,73036.3,2.67,-31.51,-31.73,0,*72
1514282645.87,40900,8.69,73026.8,2.69,-31.29,-31.57,0,*74
1514282647.15,40901,8.69,73034.0,2.69,-32.19,-32.63,0,*71
1514282648.4,40902,8.69,73034.8,2.67,-32.91,-33.27,0,*7D
1514282649.69,40903,8.69,73034.3,2.67,-32.75,-33.27,0,*76
1514282650.91,40904,8.69,73036.8,2.65,-32.85,-33.21,0,*7A
1514282652.16,40905,8.69,73050.8,2.63,-32.91,-33.43,0,*7C
1514282653.44,40906,8.63,73046.5,2.63,-32.45,-32.75,0,*72
1514282654.63,40907,8.69,73040.5,2.61,-32.13,-32.57,0,*72
1514282655.85,40908,8.69,73034.3,2.61,-31.61,-32.13,0,*7B
1514282657.1,40909,8.63,73032.5,2.59,-31.73,-32.23,0,*71
1514282658.35,40910,8.69,73040.3,2.59,-32.35,-32.79,0,*77
1514282659.55,40911,8.69,73036.8,2.57,-32.39,-32.91,0,*72
1514282660.75,40912,8.69,73050.5,2.57,-32.39,-32.91,0,*71
1514282661.98,40913,8.63,73020.8,2.57,-32.19,-32.51,0,*7E
1514282663.24,40914,8.69,73020.5,2.53,-31.57,-32.07,0,*77
1514282664.44,40915,8.69,73024.0,2.57,-31.67,-32.01,0,*77
1514282665.71,40916,8.63,73034.3,2.51,-32.45,-32.85,0,*7D
1514282666.96,40917,8.69,73032.3,2.53,-32.29,-32.63,0,*7C
1514282668.18,40918,8.69,73026.0,2.53,-32.29,-32.57,0,*74
1514282669.45,40919,8.69,73036.0,2.51,-32.75,-33.09,0,*74
1514282670.66,40920,8.69,73036.5,2.49,-32.51,-32.91,0,*71
1514282671.89,40921,8.63,73038.8,2.49,-32.29,-32.69,0,*78
1514282673.17,40922,8.63,73024.8,2.47,-31.85,-32.19,0,*77
1514282674.39,40923,8.63,73020.5,2.49,-32.13,-32.45,0,*7D
1514282675.63,40924,8.69,73020.0,2.45,-32.39,-32.75,0,*7D
1514282676.85,40925,8.63,73016.0,2.45,-31.61,-32.01,0,*71
1514282678.08,40926,8.69,73018.0,2.45,-31.45,-31.91,0,*7E
1514282679.34,40927,8.69,73028.0,2.47,-31.61,-32.01,0,*71
1514282680.53,40928,8.63,73036.0,2.45,-31.67,-32.01,0,*7A
1514282681.76,40929,8.63,73044.8,2.45,-32.19,-32.39,0,*7A
1514282682.99,40930,8.69,73056.8,2.45,-31.45,-31.73,0,*75
1514282684.22,40931,8.63,73054.3,2.45,-30.77,-31.17,0,*76
1514282685.48,40932,8.63,73058.5,2.45,-31.11,-31.51,0,*76
1514282686.74,40933,8.63,73020.0,2.45,-31.11,-31.51,0,*77
1514282687.97,40934,8.63,73000.0,2.45,-30.95,-31.17,0,*7F
1514282689.22,40935,8.69,73012.5,2.47,-30.95,-31.29,0,*71
1514282690.45,40936,8.69,73022.0,2.45,-32.07,-32.39,0,*7B
1514282691.71,40937,8.63,73020.0,2.43,-32.75,-33.15,0,*76
1514282692.99,40938,8.63,73032.0,2.43,-32.63,-32.97,0,*75
1514282694.28,40939,8.63,73026.8,2.43,-32.45,-32.75,0,*7C
1514282695.51,40940,8.63,73026.3,2.41,-32.57,-32.85,0,*7C
1514282696.77,40941,8.63,73030.0,2.39,-32.51,-32.85,0,*74
1514282698.01,40942,8.63,73014.5,2.37,-32.07,-32.51,0,*73
1514282699.24,40943,8.63,73018.0,2.37,-32.75,-33.15,0,*76
1514282700.47,40944,8.63,73020.0,2.37,-32.07,-32.35,0,*77
1514282701.71,40945,8.63,73030.0,2.37,-32.19,-32.51,0,*7B
1514282702.96,40946,8.63,73018.0,2.37,-31.51,-31.91,0,*78
1514282704.2,40947,8.63,73032.5,2.37,-32.07,-32.39,0,*78
1514282705.48,40948,8.63,73028.0,2.33,-31.57,-31.95,0,*70
1514282706.75,40949,8.63,73016.0,2.33,-31.39,-31.73,0,*71
1514282707.98,40950,8.63,73028.8,2.35,-31.45,-31.61,0,*77
1514282709.22,40951,8.69,73028.3,2.37,-31.79,-32.19,0,*77
1514282710.49,40952,8.69,73036.0,2.33,-31.91,-32.29,0,*75
1514282711.72,40953,8.63,73030.3,2.33,-32.57,-32.91,0,*7E
1514282712.98,40954,8.69,73028.3,2.29,-31.95,-32.39,0,*7D
1514282714.23,40955,8.63,73040.5,2.29,-31.91,-32.39,0,*78
1514282715.49,40956,8.63,73034.5,2.29,-32.07,-32.39,0,*77
1514282716.71,40957,8.63,73042.5,2.27,-32.13,-32.45,0,*76
1514282717.94,40958,8.63,73026.5,2.27,-31.73,-32.13,0,*7F
1514282719.22,40959,8.63,73024.8,2.29,-32.45,-32.75,0,*76
1514282720.5,40960,8.63,73026.0,2.29,-32.45,-32.79,0,*70
1514282721.75,40961,8.63,73026.5,2.25,-31.73,-32.13,0,*77
1514282722.98,40962,8.63,73018.3,2.25,-31.79,-32.13,0,*7E
1514282724.23,40963,8.63,73016.0,2.25,-31.73,-32.13,0,*75
1514282725.51,40964,8.63,73016.8,2.25,-31.61,-31.91,0,*78
1514282726.79,40965,8.63,73028.3,2.25,-31.91,-32.19,0,*75
1514282728.07,40966,8.63,73026.3,2.25,-32.29,-32.63,0,*7B
1514282729.29,40967,8.63,73020.5,2.23,-32.91,-33.31,0,*79
1514282730.51,40968,8.63,73024.8,2.23,-33.03,-33.49,0,*73
1514282731.76,40969,8.63,73042.3,2.23,-33.31,-33.77,0,*7E
1514282732.99,40970,8.63,73036.5,2.19,-33.49,-33.83,0,*7B
1514282734.21,40971,8.63,73028.8,2.19,-33.15,-33.49,0,*75
1514282735.47,40972,8.63,73028.5,2.17,-32.19,-32.51,0,*7D
1514282736.72,40973,8.63,73022.3,2.15,-31.95,-32.29,0,*76
1514282738.0,40974,8.63,73022.0,2.17,-31.91,-32.29,0,*77
1514282739.22,40975,8.63,73034.3,2.15,-32.29,-32.69,0,*70
1514282740.43,40976,8.63,73032.5,2.15,-32.13,-32.51,0,*71
1514282741.65,40977,8.63,73030.3,2.15,-32.79,-33.03,0,*7A
1514282742.88,40978,8.63,73040.0,2.15,-32.97,-33.21,0,*75
1514282744.08,40979,8.63,73036.3,2.11,-32.23,-32.69,0,*72
1514282745.34,40980,8.63,73046.0,2.13,-32.39,-32.75,0,*70
1514282746.55,40981,8.63,73032.8,2.11,-32.51,-32.91,0,*77
1514282747.78,40982,8.63,73028.3,2.11,-32.69,-33.09,0,*7F
1514282749.01,40983,8.63,73010.5,2.11,-32.19,-32.57,0,*73
1514282750.24,40984,8.63,73010.8,2.05,-32.69,-33.15,0,*71
1514282751.46,40985,8.63,73026.8,2.07,-32.79,-33.15,0,*73
1514282752.72,40986,8.63,73022.8,2.05,-32.85,-33.15,0,*71
1514282753.97,40987,8.63,73012.5,2.05,-32.51,-32.79,0,*72
1514282755.2,40988,8.63,73016.3,2.05,-32.69,-33.03,0,*7A
1514282756.44,40989,8.63,73040.3,2.03,-32.69,-33.09,0,*77
1514282757.7,40990,8.63,73030.3,2.03,-32.63,-32.85,0,*70
1514282758.92,40991,8.63,73014.8,2.01,-32.35,-32.69,0,*72
1514282760.14,40992,8.63,72998.3,2.03,-32.35,-32.79,0,*72
1514282761.37,40993,8.63,72994.3,2.01,-33.03,-33.37,0,*7E
1514282762.63,40994,8.63,73014.5,2.01,-33.49,-33.95,0,*7F
1514282763.83,40995,8.63,73002.0,1.99,-33.67,-34.13,0,*79
1514282765.08,40996,8.63,73008.5,1.97,-33.73,-34.07,0,*74
1514282766.29,40997,8.63,73034.8,1.95,-33.89,-34.25,0,*72
1514282767.54,40998,8.63,73026.8,1.93,-33.15,-33.49,0,*73
1514282768.81,40999,8.63,73008.3,1.93,-33.31,-33.61,0,*7E
1514282770.06,41000,8.69,73018.8,1.93,-33.89,-34.13,0,*77
1514282771.31,41001,8.63,73022.8,1.89,-34.13,-34.35,0,*7D
1514282772.55,41002,8.69,73022.0,1.89,-33.95,-34.31,0,*73
1514282773.74,41003,8.63,73024.8,1.83,-33.83,-34.25,0,*7A
1514282774.96,41004,8.63,73040.8,1.83,-33.61,-34.07,0,*71
1514282776.21,41005,8.63,73046.3,1.83,-32.97,-33.31,0,*7A
1514282777.43,41006,8.63,73036.8,1.83,-33.15,-33.61,0,*77
1514282778.68,41007,8.63,73024.5,1.81,-32.85,-33.21,0,*78
1514282779.94,41008,8.63,73032.8,1.79,-32.85,-33.27,0,*76
1514282781.16,41009,8.63,73038.3,1.79,-33.43,-33.95,0,*75
1514282782.41,41010,8.63,73040.0,1.79,-33.27,-33.73,0,*77
1514282783.67,41011,8.63,73038.3,1.77,-33.73,-34.13,0,*78
1514282784.95,41012,8.63,73034.0,1.77,-33.61,-34.01,0,*7B
1514282786.2,41013,8.63,73036.0,1.75,-34.01,-34.35,0,*7E
1514282787.43,41014,8.63,73046.3,1.75,-34.19,-34.59,0,*7A
1514282788.68,41015,8.63,73012.0,1.73,-33.15,-33.73,0,*79
1514282789.93,41016,8.63,73024.5,1.71,-33.73,-34.25,0,*7C
1514282791.14,41017,8.63,73034.0,1.71,-33.95,-34.41,0,*77
1514282792.42,41018,8.63,73040.8,1.67,-34.31,-34.53,0,*75
1514282793.63,41019,8.63,73042.8,1.65,-33.95,-34.35,0,*7F
1514282794.87,41020,8.63,73044.8,1.65,-34.19,-34.35,0,*76
1514282796.1,41021,8.63,73044.5,1.61,-34.19,-34.59,0,*79
1514282797.3,41022,8.63,73046.0,1.61,-34.07,-34.59,0,*75
1514282798.56,41023,8.63,73052.3,1.59,-34.01,-34.47,0,*76
1514282799.78,41024,8.63,73052.3,1.57,-33.89,-34.07,0,*7C
1514282800.98,41025,8.63,73046.3,1.57,-33.83,-34.25,0,*77
1514282802.22,41026,8.63,73036.3,1.57,-34.01,-34.31,0,*7C
1514282803.47,41027,8.63,73046.3,1.55,-33.77,-34.07,0,*7C
1514282804.7,41028,8.63,73014.3,1.53,-33.09,-33.55,0,*7C
1514282805.93,41029,8.63,73040.0,1.53,-34.13,-34.53,0,*70
1514282807.21,41030,8.69,73044.5,1.51,-34.19,-34.53,0,*70
1514282808.42,41031,8.63,73044.3,1.49,-33.83,-34.07,0,*7D
1514282809.67,41032,8.63,73050.5,1.51,-33.77,-34.13,0,*79
1514282810.89,41033,8.63,73048.3,1.49,-34.01,-34.25,0,*72
1514282812.14,41034,8.63,73056.5,1.47,-34.01,-34.41,0,*79
1514282813.37,41035,8.63,73058.8,1.45,-33.55,-33.89,0,*7F
1514282814.6,41036,8.63,73048.5,1.45,-33.15,-33.43,0,*7E
1514282815.85,41037,8.63,73032.8,1.45,-33.27,-33.61,0,*7E
1514282817.08,41038,8.63,73032.8,1.45,-33.15,-33.27,0,*72
1514282818.29,41039,8.63,73038.0,1.45,-33.03,-33.37,0,*75
1514282819.57,41040,8.63,73030.5,1.47,-32.97,-33.31,0,*73
1514282820.8,41041,8.63,73032.0,1.45,-33.37,-33.73,0,*7D
1514282822.03,41042,8.63,73042.0,1.39,-33.83,-34.19,0,*71
1514282823.25,41043,8.63,73050.8,1.39,-33.21,-33.61,0,*70
1514282824.45,41044,8.63,73032.8,1.39,-32.91,-33.21,0,*79
1514282825.67,41045,8.63,73036.8,1.39,-32.69,-32.91,0,*75
1514282826.9,41046,8.63,73024.8,1.39,-32.39,-32.75,0,*79
1514282828.11,41047,8.63,73020.3,1.39,-32.23,-32.51,0,*75
1514282829.32,41048,8.63,73012.5,1.39,-32.51,-32.69,0,*74
1514282830.56,41049,8.63,73014.0,1.39,-33.03,-33.27,0,*78
1514282831.81,41050,8.63,73012.8,1.39,-34.01,-34.35,0,*71
1514282833.03,41051,8.63,73016.5,1.37,-33.83,-34.13,0,*77
1514282834.26,41052,8.63,73014.5,1.35,-34.19,-34.47,0,*73
1514282835.49,41053,8.63,73030.8,1.35,-34.13,-34.53,0,*7D
1514282836.71,41054,8.63,73010.5,1.35,-33.49,-33.83,0,*78
1514282837.91,41055,8.63,72996.8,1.35,-33.15,-33.37,0,*7F
1514282839.16,41056,8.63,73020.5,1.35,-33.27,-33.49,0,*74
1514282840.41,41057,8.63,73024.8,1.33,-33.73,-34.07,0,*7F
1514282841.66,41058,8.63,73030.5,1.33,-33.43,-33.95,0,*7F
1514282842.91,41059,8.63,73030.5,1.31,-33.43,-33.73,0,*74
1514282844.14,41060,8.63,73040.0,1.29,-33.37,-33.67,0,*71
1514282845.37,41061,8.63,73032.0,1.31,-33.15,-33.43,0,*7F
1514282846.62,41062,8.63,73036.8,1.29,-33.37,-33.61,0,*75
1514282847.87,41063,8.63,73024.5,1.29,-34.13,-34.35,0,*73
1514282849.1,41064,8.63,73026.5,1.27,-34.31,-34.59,0,*70
1514282850.35,41065,8.63,73042.3,1.27,-34.31,-34.35,0,*7B
1514282851.6,41066,8.63,73032.3,1.23,-33.49,-33.89,0,*74
1514282852.84,41067,8.63,73010.3,1.23,-33.49,-33.83,0,*7F
1514282854.11,41068,8.63,73030.0,1.25,-33.43,-33.73,0,*73
1514282855.36,41069,8.63,73028.8,1.23,-34.01,-34.35,0,*70
1514282856.59,41070,8.63,73032.3,1.23,-34.25,-34.53,0,*7E
1514282857.84,41071,8.63,73042.0,1.21,-33.61,-33.95,0,*77
1514282859.12,41072,8.63,73046.5,1.21,-33.49,-33.73,0,*76
1514282860.36,41073,8.63,73050.0,1.21,-33.61,-33.95,0,*75
1514282861.62,41074,8.63,73038.5,1.17,-33.21,-33.43,0,*78
1514282862.86,41075,8.63,73036.5,1.15,-33.67,-34.01,0,*78
1514282864.11,41076,8.63,73034.0,1.15,-33.43,-33.61,0,*7C
1514282865.38,41077,8.63,73020.5,1.15,-32.75,-33.09,0,*77
1514282866.59,41078,8.63,73020.5,1.15,-33.37,-33.67,0,*77
1514282867.87,41079,8.63,73022.5,1.13,-33.61,-33.89,0,*73
1514282869.11,41080,8.63,73032.8,1.15,-33.67,-34.01,0,*72
1514282870.37,41081,8.63,73028.8,1.13,-33.31,-33.67,0,*71
1514282871.63,41082,8.63,73030.0,1.13,-33.49,-33.67,0,*7D
1514282872.91,41083,8.63,73016.0,1.13,-33.43,-33.49,0,*7A
1514282874.14,41084,8.63,73014.0,1.11,-32.39,-32.79,0,*71
1514282875.38,41085,8.63,73018.0,1.11,-32.63,-32.91,0,*79
1514282876.61,41086,8.63,73012.8,1.11,-32.57,-32.79,0,*7B
1514282877.85,41087,8.63,73008.3,1.11,-32.39,-32.75,0,*7E
1514282879.09,41088,8.63,73004.5,1.11,-32.39,-32.75,0,*71
1514282880.32,41089,8.63,72996.0,1.11,-32.39,-32.63,0,*77
1514282881.54,41090,8.63,72964.3,1.13,-32.35,-32.35,0,*72
1514282882.83,41091,8.63,72976.0,1.13,-32.75,-33.09,0,*79
1514282884.09,41092,8.63,72976.8,1.13,-33.49,-33.83,0,*76
1514282885.35,41093,8.63,72984.8,1.13,-33.67,-34.01,0,*76
1514282886.6,41094,8.63,72992.8,1.13,-34.01,-34.25,0,*70
1514282887.83,41095,8.63,73006.0,1.09,-34.25,-34.47,0,*78
1514282889.09,41096,8.63,73002.5,1.07,-33.83,-34.19,0,*75
1514282890.31,41097,8.63,73012.0,1.05,-34.13,-34.35,0,*76
1514282891.55,41098,8.63,73036.3,1.07,-34.13,-34.47,0,*7E
1514282892.81,41099,8.63,73030.8,1.05,-33.43,-33.77,0,*7B
1514282894.05,41100,8.63,73014.3,1.05,-33.43,-33.61,0,*7D
1514282895.33,41101,8.63,73018.8,1.03,-33.61,-33.89,0,*7C
1514282896.58,41102,8.63,73012.8,1.03,-33.67,-33.77,0,*78
1514282897.83,41103,8.63,73008.3,1.01,-33.61,-33.89,0,*7C
1514282899.08,41104,8.63,73002.8,1.01,-34.01,-34.35,0,*7A
1514282900.31,41105,8.63,72990.8,1.01,-33.67,-33.89,0,*7C
1514282901.54,41106,8.63,72992.8,1.01,-33.83,-34.19,0,*7B
1514282902.73,41107,8.63,72994.3,1.01,-33.83,-34.25,0,*75
1514282903.96,41108,8.63,72994.8,1.01,-34.19,-34.41,0,*7C
1514282905.18,41109,8.63,72986.3,0.97,-33.89,-34.13,0,*4A
1514282906.38,41110,8.63,72994.3,0.97,-34.07,-34.41,0,*44
1514282907.63,41111,8.63,73000.0,0.93,-34.31,-34.53,0,*47
1514282908.87,41112,8.63,73010.0,0.93,-34.47,-34.65,0,*40
1514282910.13,41113,8.63,73008.3,0.91,-34.19,-34.47,0,*48
1514282911.41,41114,8.63,73010.3,0.91,-34.35,-34.53,0,*44
1514282912.67,41115,8.63,73000.0,0.91,-34.31,-34.47,0,*44
1514282913.9,41116,8.63,73008.0,0.87,-34.07,-34.59,0,*4A